Time,TemperatureF,DewpointF,PressureIn,WindDirection,WindDirectionDegrees,WindSpeedMPH,WindSpeedGustMPH,Humidity,HourlyPrecipIn,Conditions,Clouds,dailyrainin,SoftwareType,DateUTC
2013-01-15 00:00:00,36.6,31.6,30.21,NNW,346,2.0,9.0,82,0.00,,,0.03,Wunderground PWS Mod,2013-01-15 05:00:00,
2013-01-15 00:03:00,36.6,31.9,30.21,NNE,28,3.0,9.0,83,0.00,,,0.03,Wunderground PWS Mod,2013-01-15 05:03:00,
2013-01-15 00:05:00,36.5,31.8,30.21,North,360,3.0,8.0,83,0.00,,,0.00,Wunderground PWS Mod,2013-01-15 05:05:00,
2013-01-15 00:07:00,36.5,31.8,30.22,North,355,3.0,8.0,83,0.00,,,0.00,Wunderground PWS Mod,2013-01-15 05:07:00,
2013-01-15 00:12:00,36.3,31.9,30.22,NE,36,3.0,8.0,84,0.00,,,0.01,Wunderground PWS Mod,2013-01-15 05:12:00,
2013-01-15 00:14:00,35.8,32.0,30.22,NNE,23,3.0,9.0,86,0.03,,,0.22,Wunderground PWS Mod,2013-01-15 05:14:00,
2013-01-15 00:16:00,35.8,32.0,30.22,NNE,23,3.0,9.0,86,0.02,,,0.22,Wunderground PWS Mod,2013-01-15 05:16:00,
2013-01-15 00:17:00,36.2,31.8,30.22,NNE,32,3.0,8.0,84,0.00,,,0.01,Wunderground PWS Mod,2013-01-15 05:17:00,
2013-01-15 00:18:00,35.8,32.0,30.22,NNE,23,3.0,9.0,86,0.02,,,0.22,Wunderground PWS Mod,2013-01-15 05:18:00,
2013-01-15 00:20:00,35.8,32.0,30.22,NNE,23,3.0,9.0,86,0.02,,,0.22,Wunderground PWS Mod,2013-01-15 05:20:00,
2013-01-15 00:22:00,36.0,31.9,30.22,North,9,3.0,8.0,85,0.00,,,0.01,Wunderground PWS Mod,2013-01-15 05:22:00,
2013-01-15 00:24:00,35.8,32.0,30.22,NNE,23,3.0,9.0,86,0.02,,,0.22,Wunderground PWS Mod,2013-01-15 05:24:00,
2013-01-15 00:26:00,35.8,32.0,30.22,NNE,23,3.0,9.0,86,0.02,,,0.22,Wunderground PWS Mod,2013-01-15 05:26:00,
2013-01-15 00:28:00,35.9,32.1,30.23,NNE,32,3.0,8.0,86,0.00,,,0.01,Wunderground PWS Mod,2013-01-15 05:28:00,
2013-01-15 00:30:00,35.8,32.0,30.22,NNE,23,3.0,9.0,86,0.02,,,0.22,Wunderground PWS Mod,2013-01-15 05:30:00,
2013-01-15 00:32:00,35.8,32.0,30.22,NNE,23,3.0,9.0,86,0.02,,,0.22,Wunderground PWS Mod,2013-01-15 05:32:00,
2013-01-15 00:34:00,35.8,32.0,30.22,NNE,19,3.0,8.0,86,0.00,,,0.02,Wunderground PWS Mod,2013-01-15 05:34:00,
2013-01-15 00:36:00,35.8,32.0,30.22,NNE,23,3.0,9.0,86,0.02,,,0.22,Wunderground PWS Mod,2013-01-15 05:36:00,
2013-01-15 00:38:00,35.8,32.0,30.22,NNE,23,3.0,9.0,86,0.02,,,0.22,Wunderground PWS Mod,2013-01-15 05:38:00,
2013-01-15 00:39:00,35.7,32.2,30.22,NNE,22,2.0,8.0,87,0.00,,,0.02,Wunderground PWS Mod,2013-01-15 05:39:00,
2013-01-15 00:40:00,35.8,32.0,30.22,NNE,23,3.0,9.0,86,0.02,,,0.22,Wunderground PWS Mod,2013-01-15 05:40:00,
2013-01-15 00:42:00,35.8,32.0,30.22,NNE,23,3.0,9.0,86,0.02,,,0.22,Wunderground PWS Mod,2013-01-15 05:42:00,
2013-01-15 00:44:00,35.5,32.0,30.22,North,360,2.0,8.0,87,0.00,,,0.02,Wunderground PWS Mod,2013-01-15 05:44:00,
2013-01-15 00:46:00,35.2,32.6,30.21,NNE,23,2.0,9.0,90,0.03,,,0.22,Wunderground PWS Mod,2013-01-15 05:46:00,
2013-01-15 00:48:00,35.2,32.6,30.21,NNE,23,2.0,9.0,90,0.03,,,0.22,Wunderground PWS Mod,2013-01-15 05:48:00,
2013-01-15 00:50:00,35.4,32.2,30.22,NE,50,2.0,8.0,88,0.00,,,0.02,Wunderground PWS Mod,2013-01-15 05:50:00,
2013-01-15 00:52:00,35.2,32.6,30.21,NNE,23,2.0,9.0,90,0.03,,,0.22,Wunderground PWS Mod,2013-01-15 05:52:00,
2013-01-15 00:54:00,35.2,32.6,30.21,NNE,23,2.0,9.0,90,0.03,,,0.22,Wunderground PWS Mod,2013-01-15 05:54:00,
2013-01-15 00:55:00,35.3,32.4,30.21,North,11,2.0,8.0,89,0.00,,,0.02,Wunderground PWS Mod,2013-01-15 05:55:00,
2013-01-15 00:56:00,35.2,32.6,30.21,NNE,23,2.0,9.0,90,0.03,,,0.22,Wunderground PWS Mod,2013-01-15 05:56:00,
2013-01-15 00:58:00,35.2,32.6,30.21,NNE,23,2.0,9.0,90,0.03,,,0.22,Wunderground PWS Mod,2013-01-15 05:58:00,
2013-01-15 01:00:00,35.2,32.6,30.21,ENE,57,1.0,8.0,90,0.00,,,0.03,Wunderground PWS Mod,2013-01-15 06:00:00,
2013-01-15 01:02:00,35.2,32.6,30.21,NNE,23,2.0,9.0,90,0.01,,,0.22,Wunderground PWS Mod,2013-01-15 06:02:00,
2013-01-15 01:04:00,35.2,32.6,30.21,NNE,23,2.0,9.0,90,0.01,,,0.22,Wunderground PWS Mod,2013-01-15 06:04:00,
2013-01-15 01:05:00,35.1,32.5,30.21,ENE,66,1.0,8.0,90,0.10,,,0.04,Wunderground PWS Mod,2013-01-15 06:05:00,
2013-01-15 01:06:00,35.2,32.6,30.21,NNE,23,2.0,9.0,90,0.01,,,0.22,Wunderground PWS Mod,2013-01-15 06:06:00,
2013-01-15 01:08:00,35.2,32.6,30.21,NNE,23,2.0,9.0,90,0.01,,,0.22,Wunderground PWS Mod,2013-01-15 06:08:00,
2013-01-15 01:10:00,35.2,32.6,30.21,NNE,23,2.0,9.0,90,0.01,,,0.22,Wunderground PWS Mod,2013-01-15 06:10:00,
2013-01-15 01:11:00,35.0,32.4,30.22,NNE,19,1.0,8.0,90,0.10,,,0.04,Wunderground PWS Mod,2013-01-15 06:11:00,
2013-01-15 01:12:00,35.2,32.6,30.21,NNE,23,2.0,9.0,90,0.01,,,0.22,Wunderground PWS Mod,2013-01-15 06:12:00,
2013-01-15 01:14:00,35.2,32.6,30.21,NNE,23,2.0,9.0,90,0.01,,,0.22,Wunderground PWS Mod,2013-01-15 06:14:00,
2013-01-15 01:16:00,34.6,32.5,30.23,NNE,23,1.0,4.0,92,0.05,,,0.22,Wunderground PWS Mod,2013-01-15 06:16:00,
2013-01-15 01:17:00,34.9,32.5,30.22,NNE,16,1.0,8.0,91,0.10,,,0.05,Wunderground PWS Mod,2013-01-15 06:17:00,
2013-01-15 01:18:00,34.6,32.5,30.23,NNE,23,1.0,4.0,92,0.05,,,0.22,Wunderground PWS Mod,2013-01-15 06:18:00,
2013-01-15 01:20:00,34.6,32.5,30.23,NNE,23,1.0,4.0,92,0.05,,,0.22,Wunderground PWS Mod,2013-01-15 06:20:00,
2013-01-15 01:22:00,34.8,32.4,30.22,NE,47,1.0,8.0,91,0.10,,,0.06,Wunderground PWS Mod,2013-01-15 06:22:00,
2013-01-15 01:24:00,34.6,32.5,30.23,NNE,23,1.0,4.0,92,0.05,,,0.22,Wunderground PWS Mod,2013-01-15 06:24:00,
2013-01-15 01:26:00,34.6,32.5,30.23,NNE,23,1.0,4.0,92,0.05,,,0.22,Wunderground PWS Mod,2013-01-15 06:26:00,
2013-01-15 01:28:00,34.7,32.3,30.22,NNE,19,1.0,8.0,91,0.06,,,0.07,Wunderground PWS Mod,2013-01-15 06:28:00,
2013-01-15 01:30:00,34.6,32.5,30.23,NNE,23,1.0,4.0,92,0.05,,,0.22,Wunderground PWS Mod,2013-01-15 06:30:00,
2013-01-15 01:32:00,34.6,32.5,30.23,NNE,23,1.0,4.0,92,0.05,,,0.22,Wunderground PWS Mod,2013-01-15 06:32:00,
2013-01-15 01:34:00,34.6,32.5,30.23,NNE,18,1.0,8.0,92,0.06,,,0.07,Wunderground PWS Mod,2013-01-15 06:34:00,
2013-01-15 01:36:00,34.6,32.5,30.23,NNE,23,1.0,4.0,92,0.05,,,0.22,Wunderground PWS Mod,2013-01-15 06:36:00,
2013-01-15 01:38:00,34.6,32.5,30.23,NNE,23,1.0,4.0,92,0.05,,,0.22,Wunderground PWS Mod,2013-01-15 06:38:00,
2013-01-15 01:39:00,34.5,32.4,30.23,NNW,347,1.0,8.0,92,0.07,,,0.08,Wunderground PWS Mod,2013-01-15 06:39:00,
2013-01-15 01:40:00,34.6,32.5,30.23,NNE,23,1.0,4.0,92,0.05,,,0.22,Wunderground PWS Mod,2013-01-15 06:40:00,
2013-01-15 01:42:00,34.6,32.5,30.23,NNE,23,1.0,4.0,92,0.05,,,0.22,Wunderground PWS Mod,2013-01-15 06:42:00,
2013-01-15 01:44:00,34.4,32.3,30.23,NNE,13,2.0,8.0,92,0.06,,,0.08,Wunderground PWS Mod,2013-01-15 06:44:00,
2013-01-15 01:46:00,34.3,32.5,30.23,NNE,23,2.0,5.0,93,0.07,,,0.22,Wunderground PWS Mod,2013-01-15 06:46:00,
2013-01-15 01:48:00,34.3,32.5,30.23,NNE,23,2.0,5.0,93,0.07,,,0.22,Wunderground PWS Mod,2013-01-15 06:48:00,
2013-01-15 01:50:00,34.4,32.3,30.24,NNE,14,2.0,8.0,92,0.04,,,0.08,Wunderground PWS Mod,2013-01-15 06:50:00,
2013-01-15 01:52:00,34.3,32.5,30.23,NNE,23,2.0,5.0,93,0.07,,,0.22,Wunderground PWS Mod,2013-01-15 06:52:00,
2013-01-15 01:54:00,34.3,32.5,30.23,NNE,23,2.0,5.0,93,0.07,,,0.22,Wunderground PWS Mod,2013-01-15 06:54:00,
2013-01-15 01:55:00,34.4,32.3,30.24,NNE,33,2.0,8.0,92,0.04,,,0.09,Wunderground PWS Mod,2013-01-15 06:55:00,
2013-01-15 01:56:00,34.3,32.5,30.23,NNE,23,2.0,5.0,93,0.07,,,0.22,Wunderground PWS Mod,2013-01-15 06:56:00,
2013-01-15 01:58:00,34.3,32.5,30.23,NNE,23,2.0,5.0,93,0.07,,,0.22,Wunderground PWS Mod,2013-01-15 06:58:00,
2013-01-15 02:00:00,34.3,32.5,30.23,NE,36,1.0,8.0,93,0.08,,,0.10,Wunderground PWS Mod,2013-01-15 07:00:00,
2013-01-15 02:02:00,34.3,32.5,30.23,NNE,23,2.0,5.0,93,0.07,,,0.22,Wunderground PWS Mod,2013-01-15 07:02:00,
2013-01-15 02:04:00,34.3,32.5,30.23,NNE,23,2.0,5.0,93,0.07,,,0.22,Wunderground PWS Mod,2013-01-15 07:04:00,
2013-01-15 02:05:00,34.2,32.4,30.23,ENE,59,2.0,8.0,93,0.08,,,0.10,Wunderground PWS Mod,2013-01-15 07:05:00,
2013-01-15 02:06:00,34.3,32.5,30.23,NNE,23,2.0,5.0,93,0.07,,,0.22,Wunderground PWS Mod,2013-01-15 07:06:00,
2013-01-15 02:08:00,34.3,32.5,30.23,NNE,23,2.0,5.0,93,0.07,,,0.22,Wunderground PWS Mod,2013-01-15 07:08:00,
2013-01-15 02:10:00,34.3,32.5,30.23,NNE,23,2.0,5.0,93,0.07,,,0.22,Wunderground PWS Mod,2013-01-15 07:10:00,
2013-01-15 02:11:00,34.1,32.3,30.23,NE,51,1.0,8.0,93,0.05,,,0.10,Wunderground PWS Mod,2013-01-15 07:11:00,
2013-01-15 02:12:00,34.3,32.5,30.23,NNE,23,2.0,5.0,93,0.07,,,0.22,Wunderground PWS Mod,2013-01-15 07:12:00,
2013-01-15 02:14:00,34.3,32.5,30.23,NNE,23,2.0,5.0,93,0.07,,,0.22,Wunderground PWS Mod,2013-01-15 07:14:00,
2013-01-15 02:16:00,34.1,32.3,30.22,ENE,67,1.0,8.0,93,0.05,,,0.11,Wunderground PWS Mod,2013-01-15 07:16:00,
2013-01-15 02:18:00,34.2,32.7,30.20,ENE,68,1.0,4.0,94,0.05,,,0.22,Wunderground PWS Mod,2013-01-15 07:18:00,
2013-01-15 02:20:00,34.2,32.7,30.20,ENE,68,1.0,4.0,94,0.05,,,0.22,Wunderground PWS Mod,2013-01-15 07:20:00,
2013-01-15 02:21:00,34.0,32.2,30.21,ENE,73,2.0,8.0,93,0.05,,,0.11,Wunderground PWS Mod,2013-01-15 07:21:00,
2013-01-15 02:22:00,34.2,32.7,30.20,ENE,68,1.0,4.0,94,0.05,,,0.22,Wunderground PWS Mod,2013-01-15 07:22:00,
2013-01-15 02:24:00,34.2,32.7,30.20,ENE,68,1.0,4.0,94,0.05,,,0.22,Wunderground PWS Mod,2013-01-15 07:24:00,
2013-01-15 02:26:00,34.1,32.3,30.20,ENE,63,1.0,8.0,93,0.04,,,0.11,Wunderground PWS Mod,2013-01-15 07:26:00,
2013-01-15 02:28:00,34.2,32.7,30.20,ENE,68,1.0,4.0,94,0.05,,,0.22,Wunderground PWS Mod,2013-01-15 07:28:00,
2013-01-15 02:30:00,34.2,32.7,30.20,ENE,68,1.0,4.0,94,0.05,,,0.22,Wunderground PWS Mod,2013-01-15 07:30:00,
2013-01-15 02:32:00,34.3,32.8,30.19,ENE,68,0.0,8.0,94,0.00,,,0.12,Wunderground PWS Mod,2013-01-15 07:32:00,
2013-01-15 02:34:00,34.2,32.7,30.20,ENE,68,1.0,4.0,94,0.05,,,0.22,Wunderground PWS Mod,2013-01-15 07:34:00,
2013-01-15 02:36:00,34.2,32.7,30.20,ENE,68,1.0,4.0,94,0.05,,,0.22,Wunderground PWS Mod,2013-01-15 07:36:00,
2013-01-15 02:37:00,34.1,32.3,30.20,East,87,1.0,8.0,93,0.00,,,0.12,Wunderground PWS Mod,2013-01-15 07:37:00,
2013-01-15 02:38:00,34.2,32.7,30.20,ENE,68,1.0,4.0,94,0.05,,,0.22,Wunderground PWS Mod,2013-01-15 07:38:00,
2013-01-15 02:40:00,34.2,32.7,30.20,ENE,68,1.0,4.0,94,0.05,,,0.22,Wunderground PWS Mod,2013-01-15 07:40:00,
2013-01-15 02:42:00,34.2,32.7,30.20,ENE,68,1.0,4.0,94,0.05,,,0.22,Wunderground PWS Mod,2013-01-15 07:42:00,
2013-01-15 02:43:00,33.9,32.4,30.20,North,5,1.0,8.0,94,0.00,,,0.12,Wunderground PWS Mod,2013-01-15 07:43:00,
2013-01-15 02:44:00,34.2,32.7,30.20,ENE,68,1.0,4.0,94,0.05,,,0.22,Wunderground PWS Mod,2013-01-15 07:44:00,
2013-01-15 02:46:00,33.7,31.9,30.22,NNE,23,2.0,8.0,93,0.05,,,0.22,Wunderground PWS Mod,2013-01-15 07:46:00,
2013-01-15 02:48:00,33.9,32.4,30.22,NNW,344,1.0,8.0,94,0.00,,,0.13,Wunderground PWS Mod,2013-01-15 07:48:00,
2013-01-15 02:50:00,33.7,31.9,30.22,NNE,23,2.0,8.0,93,0.05,,,0.22,Wunderground PWS Mod,2013-01-15 07:50:00,
2013-01-15 02:52:00,33.7,31.9,30.22,NNE,23,2.0,8.0,93,0.05,,,0.22,Wunderground PWS Mod,2013-01-15 07:52:00,
2013-01-15 02:54:00,33.8,32.3,30.25,NNW,344,2.0,8.0,94,0.12,,,0.14,Wunderground PWS Mod,2013-01-15 07:54:00,
2013-01-15 02:56:00,33.7,31.9,30.22,NNE,23,2.0,8.0,93,0.05,,,0.22,Wunderground PWS Mod,2013-01-15 07:56:00,
2013-01-15 02:58:00,33.7,31.9,30.22,NNE,23,2.0,8.0,93,0.05,,,0.22,Wunderground PWS Mod,2013-01-15 07:58:00,
2013-01-15 03:00:00,33.7,32.2,30.23,NE,49,3.0,8.0,94,0.08,,,0.15,Wunderground PWS Mod,2013-01-15 08:00:00,
2013-01-15 03:02:00,33.7,31.9,30.22,NNE,23,2.0,8.0,93,0.05,,,0.22,Wunderground PWS Mod,2013-01-15 08:02:00,
2013-01-15 03:04:00,33.7,31.9,30.22,NNE,23,2.0,8.0,93,0.05,,,0.22,Wunderground PWS Mod,2013-01-15 08:04:00,
2013-01-15 03:05:00,33.8,32.0,30.21,ENE,61,2.0,8.0,93,0.11,,,0.16,Wunderground PWS Mod,2013-01-15 08:05:00,
2013-01-15 03:06:00,33.7,31.9,30.22,NNE,23,2.0,8.0,93,0.05,,,0.22,Wunderground PWS Mod,2013-01-15 08:06:00,
2013-01-15 03:08:00,33.7,31.9,30.22,NNE,23,2.0,8.0,93,0.05,,,0.22,Wunderground PWS Mod,2013-01-15 08:08:00,
2013-01-15 03:10:00,33.7,31.9,30.21,East,83,1.0,8.0,93,0.10,,,0.17,Wunderground PWS Mod,2013-01-15 08:10:00,
2013-01-15 03:12:00,33.7,31.9,30.22,NNE,23,2.0,8.0,93,0.05,,,0.22,Wunderground PWS Mod,2013-01-15 08:12:00,
2013-01-15 03:14:00,33.7,31.9,30.22,NNE,23,2.0,8.0,93,0.05,,,0.22,Wunderground PWS Mod,2013-01-15 08:14:00,
2013-01-15 03:15:00,33.7,31.9,30.21,NNE,14,1.0,8.0,93,0.12,,,0.18,Wunderground PWS Mod,2013-01-15 08:15:00,
2013-01-15 03:16:00,33.6,31.8,30.20,NNE,23,1.0,6.0,93,0.08,,,0.22,Wunderground PWS Mod,2013-01-15 08:16:00,
2013-01-15 03:18:00,33.6,31.8,30.20,NNE,23,1.0,6.0,93,0.08,,,0.22,Wunderground PWS Mod,2013-01-15 08:18:00,
2013-01-15 03:21:00,33.7,31.9,30.22,NNE,31,2.0,8.0,93,0.11,,,0.18,Wunderground PWS Mod,2013-01-15 08:21:00,
2013-01-15 03:26:00,33.6,31.8,30.21,ENE,57,2.0,8.0,93,0.11,,,0.19,Wunderground PWS Mod,2013-01-15 08:26:00,
2013-01-15 03:32:00,33.6,31.8,30.21,ENE,67,2.0,8.0,93,0.09,,,0.20,Wunderground PWS Mod,2013-01-15 08:32:00,
2013-01-15 03:37:00,33.6,31.8,30.21,East,84,1.0,8.0,93,0.07,,,0.21,Wunderground PWS Mod,2013-01-15 08:37:00,
2013-01-15 03:42:00,33.7,32.2,30.19,East,86,0.0,8.0,94,0.07,,,0.21,Wunderground PWS Mod,2013-01-15 08:42:00,
2013-01-15 03:47:00,33.7,32.2,30.17,ESE,108,1.0,8.0,94,0.00,,,0.22,Wunderground PWS Mod,2013-01-15 08:47:00,
2013-01-15 03:52:00,33.7,32.2,30.18,ESE,115,1.0,8.0,94,0.00,,,0.22,Wunderground PWS Mod,2013-01-15 08:52:00,
2013-01-15 03:58:00,33.6,32.1,30.19,ENE,57,1.0,8.0,94,0.00,,,0.22,Wunderground PWS Mod,2013-01-15 08:58:00,
2013-01-15 04:03:00,33.6,32.3,30.18,NNE,29,1.0,8.0,95,0.00,,,0.22,Wunderground PWS Mod,2013-01-15 09:03:00,
2013-01-15 04:09:00,33.6,32.3,30.17,NE,51,0.0,3.0,95,0.00,,,0.22,Wunderground PWS Mod,2013-01-15 09:09:00,
2013-01-15 04:14:00,33.5,32.2,30.18,North,9,0.0,3.0,95,0.00,,,0.22,Wunderground PWS Mod,2013-01-15 09:14:00,
2013-01-15 04:20:00,33.5,32.2,30.18,NNE,28,0.0,3.0,95,0.00,,,0.22,Wunderground PWS Mod,2013-01-15 09:20:00,
2013-01-15 04:26:00,33.5,32.2,30.18,NNE,15,0.0,3.0,95,0.00,,,0.22,Wunderground PWS Mod,2013-01-15 09:26:00,
2013-01-15 04:31:00,33.5,32.2,30.18,NNE,19,1.0,3.0,95,0.00,,,0.22,Wunderground PWS Mod,2013-01-15 09:31:00,
2013-01-15 04:36:00,33.6,32.3,30.18,North,10,1.0,3.0,95,0.00,,,0.22,Wunderground PWS Mod,2013-01-15 09:36:00,
2013-01-15 04:41:00,33.5,32.2,30.17,NE,47,1.0,3.0,95,0.00,,,0.22,Wunderground PWS Mod,2013-01-15 09:41:00,
2013-01-15 04:47:00,33.6,32.3,30.18,NNE,12,1.0,3.0,95,0.00,,,0.22,Wunderground PWS Mod,2013-01-15 09:47:00,
2013-01-15 04:52:00,33.6,32.1,30.19,NE,38,1.0,3.0,94,0.00,,,0.22,Wunderground PWS Mod,2013-01-15 09:52:00,
2013-01-15 04:57:00,33.8,32.0,30.19,NNE,26,1.0,3.0,93,0.00,,,0.22,Wunderground PWS Mod,2013-01-15 09:57:00,
2013-01-15 05:03:00,33.8,32.0,30.18,NE,53,1.0,3.0,93,0.00,,,0.22,Wunderground PWS Mod,2013-01-15 10:03:00,
2013-01-15 05:08:00,33.9,31.8,30.20,North,355,0.0,3.0,92,0.00,,,0.22,Wunderground PWS Mod,2013-01-15 10:08:00,
2013-01-15 05:13:00,34.0,31.9,30.19,NE,42,0.0,3.0,92,0.00,,,0.22,Wunderground PWS Mod,2013-01-15 10:13:00,
2013-01-15 05:18:00,34.0,31.9,30.17,ENE,70,0.0,3.0,92,0.00,,,0.22,Wunderground PWS Mod,2013-01-15 10:18:00,
2013-01-15 05:24:00,33.9,32.1,30.18,NE,40,0.0,3.0,93,0.00,,,0.22,Wunderground PWS Mod,2013-01-15 10:24:00,
2013-01-15 05:30:00,34.0,32.5,30.18,NE,40,0.0,3.0,94,0.00,,,0.22,Wunderground PWS Mod,2013-01-15 10:30:00,
2013-01-15 05:35:00,34.0,32.5,30.18,NE,40,0.0,3.0,94,0.00,,,0.22,Wunderground PWS Mod,2013-01-15 10:35:00,
2013-01-15 05:40:00,33.9,32.4,30.19,NNE,27,0.0,3.0,94,0.00,,,0.22,Wunderground PWS Mod,2013-01-15 10:40:00,
2013-01-15 05:45:00,33.9,32.1,30.20,NNE,28,0.0,3.0,93,0.00,,,0.22,Wunderground PWS Mod,2013-01-15 10:45:00,
2013-01-15 05:50:00,33.9,31.8,30.20,NNE,30,0.0,3.0,92,0.00,,,0.22,Wunderground PWS Mod,2013-01-15 10:50:00,
2013-01-15 05:55:00,34.0,31.9,30.20,NNE,30,0.0,3.0,92,0.00,,,0.22,Wunderground PWS Mod,2013-01-15 10:55:00,
2013-01-15 06:00:00,34.0,31.9,30.20,NNE,29,0.0,3.0,92,0.00,,,0.22,Wunderground PWS Mod,2013-01-15 11:00:00,
2013-01-15 06:05:00,34.1,31.7,30.20,NNE,23,0.0,3.0,91,0.00,,,0.22,Wunderground PWS Mod,2013-01-15 11:05:00,
2013-01-15 06:11:00,34.1,31.7,30.20,NE,38,0.0,3.0,91,0.00,,,0.22,Wunderground PWS Mod,2013-01-15 11:11:00,
2013-01-15 06:16:00,34.2,31.6,30.21,NE,38,0.0,3.0,90,0.00,,,0.22,Wunderground PWS Mod,2013-01-15 11:16:00,
2013-01-15 06:21:00,34.2,31.6,30.21,NE,37,0.0,3.0,90,0.00,,,0.22,Wunderground PWS Mod,2013-01-15 11:21:00,
2013-01-15 06:26:00,34.2,31.8,30.22,NE,37,0.0,3.0,91,0.00,,,0.22,Wunderground PWS Mod,2013-01-15 11:26:00,
2013-01-15 06:32:00,34.2,31.8,30.22,NE,37,0.0,3.0,91,0.00,,,0.22,Wunderground PWS Mod,2013-01-15 11:32:00,
2013-01-15 06:37:00,34.2,32.1,30.23,NE,37,0.0,3.0,92,0.00,,,0.22,Wunderground PWS Mod,2013-01-15 11:37:00,
2013-01-15 06:43:00,34.2,32.1,30.23,NE,37,0.0,3.0,92,0.00,,,0.22,Wunderground PWS Mod,2013-01-15 11:43:00,
2013-01-15 06:48:00,34.2,32.4,30.23,NE,36,0.0,3.0,93,0.00,,,0.22,Wunderground PWS Mod,2013-01-15 11:48:00,
2013-01-15 06:53:00,34.1,32.0,30.23,NNE,20,0.0,3.0,92,0.00,,,0.22,Wunderground PWS Mod,2013-01-15 11:53:00,
2013-01-15 06:59:00,34.1,32.0,30.24,NNE,19,0.0,3.0,92,0.00,,,0.22,Wunderground PWS Mod,2013-01-15 11:59:00,
2013-01-15 07:04:00,34.1,31.7,30.24,North,5,0.0,3.0,91,0.00,,,0.22,Wunderground PWS Mod,2013-01-15 12:04:00,
2013-01-15 07:10:00,34.1,31.7,30.24,NNE,25,0.0,3.0,91,0.00,,,0.22,Wunderground PWS Mod,2013-01-15 12:10:00,
2013-01-15 07:15:00,34.2,31.3,30.23,NE,34,0.0,3.0,89,0.00,,,0.22,Wunderground PWS Mod,2013-01-15 12:15:00,
2013-01-15 07:20:00,34.3,31.7,30.24,NE,36,0.0,3.0,90,0.00,,,0.22,Wunderground PWS Mod,2013-01-15 12:20:00,
2013-01-15 07:25:00,34.3,31.7,30.24,NE,46,0.0,3.0,90,0.00,,,0.22,Wunderground PWS Mod,2013-01-15 12:25:00,
2013-01-15 07:31:00,34.3,31.4,30.24,ENE,61,0.0,3.0,89,0.00,,,0.22,Wunderground PWS Mod,2013-01-15 12:31:00,
2013-01-15 07:36:00,34.4,31.2,30.24,NE,45,0.0,3.0,88,0.00,,,0.22,Wunderground PWS Mod,2013-01-15 12:36:00,
2013-01-15 07:41:00,34.5,31.6,30.25,NNE,22,0.0,3.0,89,0.00,,,0.22,Wunderground PWS Mod,2013-01-15 12:41:00,
2013-01-15 07:47:00,34.4,31.2,30.25,NNE,27,0.0,3.0,88,0.00,,,0.22,Wunderground PWS Mod,2013-01-15 12:47:00,
2013-01-15 07:52:00,34.5,30.7,30.25,North,5,1.0,3.0,86,0.00,,,0.22,Wunderground PWS Mod,2013-01-15 12:52:00,
2013-01-15 07:57:00,34.6,31.1,30.25,NNE,13,1.0,4.0,87,0.00,,,0.22,Wunderground PWS Mod,2013-01-15 12:57:00,
2013-01-15 08:03:00,34.6,30.8,30.25,NNE,28,1.0,3.0,86,0.00,,,0.22,Wunderground PWS Mod,2013-01-15 13:03:00,
2013-01-15 08:09:00,34.6,30.8,30.26,NNE,32,1.0,5.0,86,0.00,,,0.22,Wunderground PWS Mod,2013-01-15 13:09:00,
2013-01-15 08:14:00,34.6,30.8,30.25,NE,51,1.0,5.0,86,0.00,,,0.22,Wunderground PWS Mod,2013-01-15 13:14:00,
2013-01-15 08:20:00,34.6,30.6,30.26,NNW,348,2.0,5.0,85,0.00,,,0.22,Wunderground PWS Mod,2013-01-15 13:20:00,
2013-01-15 08:25:00,34.6,30.6,30.27,NNE,13,2.0,5.0,85,0.00,,,0.22,Wunderground PWS Mod,2013-01-15 13:25:00,
2013-01-15 08:30:00,34.7,30.4,30.27,North,360,1.0,5.0,84,0.00,,,0.22,Wunderground PWS Mod,2013-01-15 13:30:00,
2013-01-15 08:35:00,34.7,30.7,30.27,NE,42,1.0,5.0,85,0.00,,,0.22,Wunderground PWS Mod,2013-01-15 13:35:00,
2013-01-15 08:40:00,34.8,30.8,30.27,North,355,1.0,5.0,85,0.00,,,0.22,Wunderground PWS Mod,2013-01-15 13:40:00,
2013-01-15 08:45:00,34.9,30.8,30.27,North,360,1.0,5.0,85,0.00,,,0.22,Wunderground PWS Mod,2013-01-15 13:45:00,
2013-01-15 08:51:00,35.0,30.7,30.27,North,360,1.0,5.0,84,0.00,,,0.22,Wunderground PWS Mod,2013-01-15 13:51:00,
2013-01-15 08:56:00,35.0,30.4,30.27,North,9,1.0,5.0,83,0.00,,,0.22,Wunderground PWS Mod,2013-01-15 13:56:00,
2013-01-15 09:01:00,35.1,30.2,30.27,North,355,1.0,5.0,82,0.00,,,0.22,Wunderground PWS Mod,2013-01-15 14:01:00,
2013-01-15 09:06:00,35.2,30.0,30.27,NNW,330,1.0,5.0,81,0.00,,,0.22,Wunderground PWS Mod,2013-01-15 14:06:00,
2013-01-15 09:11:00,35.2,29.6,30.27,NE,38,2.0,5.0,80,0.00,,,0.22,Wunderground PWS Mod,2013-01-15 14:11:00,
2013-01-15 09:16:00,35.3,30.4,30.27,ENE,60,2.0,5.0,82,0.00,,,0.22,Wunderground PWS Mod,2013-01-15 14:16:00,
2013-01-15 09:22:00,35.5,30.5,30.27,North,360,1.0,5.0,82,0.00,,,0.22,Wunderground PWS Mod,2013-01-15 14:22:00,
2013-01-15 09:27:00,35.4,29.5,30.27,North,5,1.0,5.0,79,0.00,,,0.22,Wunderground PWS Mod,2013-01-15 14:27:00,
2013-01-15 09:32:00,35.3,30.1,30.27,NE,51,2.0,5.0,81,0.00,,,0.22,Wunderground PWS Mod,2013-01-15 14:32:00,
2013-01-15 09:38:00,35.5,30.2,30.28,NNE,27,1.0,5.0,81,0.00,,,0.22,Wunderground PWS Mod,2013-01-15 14:38:00,
2013-01-15 09:44:00,35.6,30.0,30.28,NE,37,1.0,5.0,80,0.00,,,0.22,Wunderground PWS Mod,2013-01-15 14:44:00,
2013-01-15 09:50:00,35.8,29.9,30.28,NNW,342,1.0,5.0,79,0.00,,,0.22,Wunderground PWS Mod,2013-01-15 14:50:00,
2013-01-15 09:55:00,35.9,29.7,30.28,NNE,17,2.0,5.0,78,0.00,,,0.22,Wunderground PWS Mod,2013-01-15 14:55:00,
2013-01-15 10:00:00,36.0,29.8,30.28,NE,37,2.0,5.0,78,0.00,,,0.22,Wunderground PWS Mod,2013-01-15 15:00:00,
2013-01-15 10:05:00,36.1,29.9,30.28,NE,52,1.0,5.0,78,0.00,,,0.22,Wunderground PWS Mod,2013-01-15 15:05:00,
2013-01-15 10:10:00,36.1,29.9,30.27,NE,48,1.0,5.0,78,0.00,,,0.22,Wunderground PWS Mod,2013-01-15 15:10:00,
2013-01-15 10:16:00,36.3,30.4,30.27,NNE,15,1.0,5.0,79,0.00,,,0.22,Wunderground PWS Mod,2013-01-15 15:16:00,
2013-01-15 10:21:00,36.4,30.2,30.28,ENE,61,1.0,5.0,78,0.00,,,0.22,Wunderground PWS Mod,2013-01-15 15:21:00,
2013-01-15 10:26:00,36.4,30.2,30.27,NNE,31,2.0,5.0,78,0.00,,,0.22,Wunderground PWS Mod,2013-01-15 15:26:00,
2013-01-15 10:32:00,36.4,29.9,30.27,North,9,2.0,5.0,77,0.00,,,0.22,Wunderground PWS Mod,2013-01-15 15:32:00,
2013-01-15 10:37:00,36.5,30.3,30.26,NNE,15,1.0,5.0,78,0.00,,,0.22,Wunderground PWS Mod,2013-01-15 15:37:00,
2013-01-15 10:42:00,36.7,30.2,30.27,ENE,62,1.0,5.0,77,0.00,,,0.22,Wunderground PWS Mod,2013-01-15 15:42:00,
2013-01-15 10:47:00,36.8,30.3,30.26,NNW,348,1.0,5.0,77,0.00,,,0.22,Wunderground PWS Mod,2013-01-15 15:47:00,
2013-01-15 10:52:00,36.9,30.4,30.25,East,79,1.0,5.0,77,0.00,,,0.22,Wunderground PWS Mod,2013-01-15 15:52:00,
2013-01-15 10:57:00,36.9,30.0,30.25,NNE,24,1.0,5.0,76,0.00,,,0.22,Wunderground PWS Mod,2013-01-15 15:57:00,
2013-01-15 11:02:00,37.0,30.5,30.25,North,5,1.0,5.0,77,0.00,,,0.22,Wunderground PWS Mod,2013-01-15 16:02:00,
2013-01-15 11:07:00,37.1,29.6,30.25,North,5,1.0,5.0,74,0.00,,,0.22,Wunderground PWS Mod,2013-01-15 16:07:00,
2013-01-15 11:13:00,37.1,30.2,30.25,NE,38,1.0,5.0,76,0.00,,,0.22,Wunderground PWS Mod,2013-01-15 16:13:00,
2013-01-15 11:18:00,37.3,30.4,30.25,North,9,1.0,5.0,76,0.00,,,0.22,Wunderground PWS Mod,2013-01-15 16:18:00,
2013-01-15 11:23:00,37.2,30.0,30.25,North,9,1.0,5.0,75,0.00,,,0.22,Wunderground PWS Mod,2013-01-15 16:23:00,
2013-01-15 11:28:00,37.1,29.6,30.25,NNE,24,2.0,5.0,74,0.00,,,0.22,Wunderground PWS Mod,2013-01-15 16:28:00,
2013-01-15 11:33:00,37.1,29.6,30.25,East,95,1.0,5.0,74,0.00,,,0.22,Wunderground PWS Mod,2013-01-15 16:33:00,
2013-01-15 11:39:00,37.3,30.1,30.25,NE,35,0.0,5.0,75,0.00,,,0.22,Wunderground PWS Mod,2013-01-15 16:39:00,
2013-01-15 11:44:00,37.4,29.9,30.25,NNW,347,1.0,5.0,74,0.00,,,0.22,Wunderground PWS Mod,2013-01-15 16:44:00,
2013-01-15 11:50:00,37.4,29.5,30.25,NE,34,1.0,5.0,73,0.00,,,0.22,Wunderground PWS Mod,2013-01-15 16:50:00,
2013-01-15 11:55:00,37.5,30.0,30.25,North,360,1.0,5.0,74,0.00,,,0.22,Wunderground PWS Mod,2013-01-15 16:55:00,
2013-01-15 12:00:00,37.7,29.8,30.24,North,355,0.0,5.0,73,0.00,,,0.22,Wunderground PWS Mod,2013-01-15 17:00:00,
2013-01-15 12:05:00,37.7,29.8,30.25,NE,51,1.0,4.0,73,0.00,,,0.22,Wunderground PWS Mod,2013-01-15 17:05:00,
2013-01-15 12:11:00,37.8,29.9,30.24,ENE,63,1.0,4.0,73,0.00,,,0.22,Wunderground PWS Mod,2013-01-15 17:11:00,
2013-01-15 12:14:00,37.7,29.8,30.25,NNE,23,1.0,4.0,73,0.00,,,0.22,Wunderground PWS Mod,2013-01-15 17:14:00,
2013-01-15 12:16:00,37.9,30.4,30.24,North,355,0.0,4.0,74,0.00,,,0.22,Wunderground PWS Mod,2013-01-15 17:16:00,
2013-01-15 12:21:00,38.2,30.6,30.24,North,355,1.0,4.0,74,0.00,,,0.22,Wunderground PWS Mod,2013-01-15 17:21:00,
2013-01-15 12:27:00,38.2,30.0,30.25,North,355,1.0,4.0,72,0.00,,,0.22,Wunderground PWS Mod,2013-01-15 17:27:00,
2013-01-15 12:32:00,38.2,30.0,30.25,North,355,2.0,4.0,72,0.00,,,0.22,Wunderground PWS Mod,2013-01-15 17:32:00,
2013-01-15 12:38:00,38.3,30.1,30.24,North,355,1.0,4.0,72,0.00,,,0.22,Wunderground PWS Mod,2013-01-15 17:38:00,
2013-01-15 12:44:00,38.6,30.4,30.23,ENE,69,1.0,4.0,72,0.00,,,0.22,Wunderground PWS Mod,2013-01-15 17:44:00,
2013-01-15 12:50:00,38.7,30.1,30.23,NNE,24,0.0,4.0,71,0.00,,,0.22,Wunderground PWS Mod,2013-01-15 17:50:00,
2013-01-15 12:55:00,38.8,30.2,30.23,NE,48,0.0,4.0,71,0.00,,,0.22,Wunderground PWS Mod,2013-01-15 17:55:00,
2013-01-15 13:00:00,38.7,29.8,30.22,ESE,105,1.0,4.0,70,0.00,,,0.22,Wunderground PWS Mod,2013-01-15 18:00:00,
2013-01-15 13:05:00,38.8,29.8,30.23,ENE,61,1.0,4.0,70,0.00,,,0.22,Wunderground PWS Mod,2013-01-15 18:05:00,
2013-01-15 13:10:00,38.8,29.5,30.23,North,9,1.0,4.0,69,0.00,,,0.22,Wunderground PWS Mod,2013-01-15 18:10:00,
2013-01-15 13:16:00,38.8,30.2,30.22,East,86,1.0,4.0,71,0.00,,,0.22,Wunderground PWS Mod,2013-01-15 18:16:00,
2013-01-15 13:21:00,39.0,30.0,30.22,North,5,0.0,4.0,70,0.00,,,0.22,Wunderground PWS Mod,2013-01-15 18:21:00,
2013-01-15 13:27:00,38.9,29.6,30.22,North,5,0.0,4.0,69,0.00,,,0.22,Wunderground PWS Mod,2013-01-15 18:27:00,
2013-01-15 13:33:00,39.0,30.0,30.22,NNW,344,1.0,4.0,70,0.00,,,0.22,Wunderground PWS Mod,2013-01-15 18:33:00,
2013-01-15 13:38:00,39.1,30.1,30.22,North,10,1.0,4.0,70,0.00,,,0.22,Wunderground PWS Mod,2013-01-15 18:38:00,
2013-01-15 13:43:00,39.0,30.0,30.22,NNW,332,1.0,4.0,70,0.00,,,0.22,Wunderground PWS Mod,2013-01-15 18:43:00,
2013-01-15 13:49:00,39.1,30.1,30.22,NNW,341,1.0,4.0,70,0.00,,,0.22,Wunderground PWS Mod,2013-01-15 18:49:00,
2013-01-15 13:54:00,39.0,29.7,30.23,ENE,67,1.0,4.0,69,0.00,,,0.22,Wunderground PWS Mod,2013-01-15 18:54:00,
2013-01-15 14:00:00,39.1,30.1,30.22,East,80,1.0,4.0,70,0.00,,,0.22,Wunderground PWS Mod,2013-01-15 19:00:00,
2013-01-15 14:05:00,39.2,30.2,30.22,North,360,0.0,4.0,70,0.00,,,0.22,Wunderground PWS Mod,2013-01-15 19:05:00,
2013-01-15 14:10:00,39.3,30.0,30.22,NNE,27,0.0,4.0,69,0.00,,,0.22,Wunderground PWS Mod,2013-01-15 19:10:00,
2013-01-15 14:15:00,39.3,30.0,30.22,NNE,26,0.0,4.0,69,0.00,,,0.22,Wunderground PWS Mod,2013-01-15 19:15:00,
2013-01-15 14:21:00,39.4,30.8,30.22,NNE,13,0.0,4.0,71,0.00,,,0.22,Wunderground PWS Mod,2013-01-15 19:21:00,
2013-01-15 14:27:00,39.4,30.1,30.23,North,5,1.0,4.0,69,0.00,,,0.22,Wunderground PWS Mod,2013-01-15 19:27:00,
2013-01-15 14:32:00,39.4,30.1,30.22,North,10,1.0,4.0,69,0.00,,,0.22,Wunderground PWS Mod,2013-01-15 19:32:00,
2013-01-15 14:37:00,39.4,30.1,30.23,NE,49,0.0,4.0,69,0.00,,,0.22,Wunderground PWS Mod,2013-01-15 19:37:00,
2013-01-15 14:42:00,39.3,29.6,30.22,ESE,120,0.0,4.0,68,0.00,,,0.22,Wunderground PWS Mod,2013-01-15 19:42:00,
2013-01-15 14:48:00,39.2,29.5,30.22,ENE,66,1.0,4.0,68,0.00,,,0.22,Wunderground PWS Mod,2013-01-15 19:48:00,
2013-01-15 14:53:00,39.2,29.9,30.21,ENE,67,0.0,4.0,69,0.00,,,0.22,Wunderground PWS Mod,2013-01-15 19:53:00,
2013-01-15 14:58:00,39.2,29.9,30.22,ENE,63,0.0,4.0,69,0.00,,,0.22,Wunderground PWS Mod,2013-01-15 19:58:00,
2013-01-15 15:03:00,39.3,29.6,30.22,NE,51,0.0,4.0,68,0.00,,,0.22,Wunderground PWS Mod,2013-01-15 20:03:00,
2013-01-15 15:08:00,39.3,30.0,30.22,NE,51,0.0,4.0,69,0.00,,,0.22,Wunderground PWS Mod,2013-01-15 20:08:00,
2013-01-15 15:13:00,39.4,30.1,30.22,NE,51,0.0,4.0,69,0.00,,,0.22,Wunderground PWS Mod,2013-01-15 20:13:00,
2013-01-15 15:18:00,39.4,30.1,30.22,NE,51,0.0,4.0,69,0.00,,,0.22,Wunderground PWS Mod,2013-01-15 20:18:00,
2013-01-15 15:23:00,39.4,30.1,30.22,NE,51,0.0,4.0,69,0.00,,,0.22,Wunderground PWS Mod,2013-01-15 20:23:00,
2013-01-15 15:28:00,39.4,29.7,30.23,NE,41,0.0,4.0,68,0.00,,,0.22,Wunderground PWS Mod,2013-01-15 20:28:00,
2013-01-15 15:33:00,39.3,29.6,30.23,NE,43,0.0,4.0,68,0.00,,,0.22,Wunderground PWS Mod,2013-01-15 20:33:00,
2013-01-15 15:39:00,39.3,30.0,30.22,NE,43,0.0,4.0,69,0.00,,,0.22,Wunderground PWS Mod,2013-01-15 20:39:00,
2013-01-15 15:44:00,39.3,30.3,30.21,NE,43,0.0,4.0,70,0.00,,,0.22,Wunderground PWS Mod,2013-01-15 20:44:00,
2013-01-15 15:50:00,39.2,29.9,30.21,NE,43,0.0,4.0,69,0.00,,,0.22,Wunderground PWS Mod,2013-01-15 20:50:00,
2013-01-15 15:56:00,39.1,29.8,30.21,NE,43,0.0,4.0,69,0.00,,,0.22,Wunderground PWS Mod,2013-01-15 20:56:00,
2013-01-15 16:01:00,39.1,30.1,30.21,NE,43,0.0,4.0,70,0.00,,,0.22,Wunderground PWS Mod,2013-01-15 21:01:00,
2013-01-15 16:06:00,39.0,29.7,30.22,NE,43,0.0,0.0,69,0.00,,,0.22,Wunderground PWS Mod,2013-01-15 21:06:00,
2013-01-15 16:12:00,38.9,29.9,30.22,NE,43,0.0,0.0,70,0.00,,,0.22,Wunderground PWS Mod,2013-01-15 21:12:00,
2013-01-15 16:14:00,39.1,30.1,30.21,N/A,-737280,0.0,0.0,70,0.00,,,0.22,Wunderground PWS Mod,2013-01-15 21:14:00,
2013-01-15 16:17:00,38.8,29.8,30.23,NE,43,0.0,0.0,70,0.00,,,0.22,Wunderground PWS Mod,2013-01-15 21:17:00,
2013-01-15 16:22:00,38.7,30.1,30.23,NE,43,0.0,0.0,71,0.00,,,0.22,Wunderground PWS Mod,2013-01-15 21:22:00,
2013-01-15 16:27:00,38.7,29.8,30.23,NE,43,0.0,0.0,70,0.00,,,0.22,Wunderground PWS Mod,2013-01-15 21:27:00,
2013-01-15 16:33:00,38.6,30.0,30.23,NE,43,0.0,0.0,71,0.00,,,0.22,Wunderground PWS Mod,2013-01-15 21:33:00,
2013-01-15 16:38:00,38.6,30.4,30.23,NE,43,0.0,0.0,72,0.00,,,0.22,Wunderground PWS Mod,2013-01-15 21:38:00,
2013-01-15 16:44:00,38.5,30.6,30.24,NE,39,0.0,0.0,73,0.00,,,0.22,Wunderground PWS Mod,2013-01-15 21:44:00,
2013-01-15 16:50:00,38.4,30.5,30.23,NE,38,0.0,0.0,73,0.00,,,0.22,Wunderground PWS Mod,2013-01-15 21:50:00,
2013-01-15 16:56:00,38.3,30.1,30.24,NW,325,0.0,0.0,72,0.00,,,0.22,Wunderground PWS Mod,2013-01-15 21:56:00,
2013-01-15 17:01:00,38.2,30.0,30.23,NW,325,0.0,0.0,72,0.00,,,0.22,Wunderground PWS Mod,2013-01-15 22:01:00,
2013-01-15 17:06:00,38.2,30.3,30.23,NW,325,0.0,0.0,73,0.00,,,0.22,Wunderground PWS Mod,2013-01-15 22:06:00,
2013-01-15 17:12:00,38.0,30.1,30.23,NW,325,0.0,0.0,73,0.00,,,0.22,Wunderground PWS Mod,2013-01-15 22:12:00,
2013-01-15 17:17:00,37.9,30.0,30.24,NW,325,0.0,0.0,73,0.00,,,0.22,Wunderground PWS Mod,2013-01-15 22:17:00,
2013-01-15 17:22:00,37.7,29.8,30.24,NW,325,0.0,0.0,73,0.00,,,0.22,Wunderground PWS Mod,2013-01-15 22:22:00,
2013-01-15 17:27:00,37.5,29.3,30.23,NW,325,0.0,0.0,72,0.00,,,0.22,Wunderground PWS Mod,2013-01-15 22:27:00,
2013-01-15 17:33:00,37.4,29.5,30.23,NW,325,0.0,0.0,73,0.00,,,0.22,Wunderground PWS Mod,2013-01-15 22:33:00,
2013-01-15 17:38:00,37.2,29.3,30.24,NW,325,0.0,1.0,73,0.00,,,0.22,Wunderground PWS Mod,2013-01-15 22:38:00,
2013-01-15 17:43:00,37.1,29.2,30.24,NNW,330,0.0,0.0,73,0.00,,,0.22,Wunderground PWS Mod,2013-01-15 22:43:00,
2013-01-15 17:49:00,37.0,29.1,30.24,NNW,330,0.0,0.0,73,0.00,,,0.22,Wunderground PWS Mod,2013-01-15 22:49:00,
2013-01-15 17:54:00,36.9,29.4,30.24,NNW,330,0.0,0.0,74,0.00,,,0.22,Wunderground PWS Mod,2013-01-15 22:54:00,
2013-01-15 18:00:00,36.9,29.4,30.24,NNW,330,0.0,0.0,74,0.00,,,0.22,Wunderground PWS Mod,2013-01-15 23:00:00,
2013-01-15 18:05:00,36.8,29.3,30.24,NNW,329,0.0,0.0,74,0.00,,,0.22,Wunderground PWS Mod,2013-01-15 23:05:00,
2013-01-15 18:11:00,36.8,29.3,30.23,NNW,329,0.0,0.0,74,0.00,,,0.22,Wunderground PWS Mod,2013-01-15 23:11:00,
2013-01-15 18:16:00,36.8,29.0,30.23,NNW,330,0.0,0.0,73,0.00,,,0.22,Wunderground PWS Mod,2013-01-15 23:16:00,
2013-01-15 18:21:00,36.7,28.9,30.23,NNW,329,0.0,0.0,73,0.00,,,0.22,Wunderground PWS Mod,2013-01-15 23:21:00,
2013-01-15 18:26:00,36.6,28.8,30.22,NNW,330,0.0,0.0,73,0.00,,,0.22,Wunderground PWS Mod,2013-01-15 23:26:00,
2013-01-15 18:31:00,36.4,28.6,30.23,NNW,330,0.0,0.0,73,0.00,,,0.22,Wunderground PWS Mod,2013-01-15 23:31:00,
2013-01-15 18:36:00,36.3,28.5,30.23,NNW,330,0.0,0.0,73,0.00,,,0.22,Wunderground PWS Mod,2013-01-15 23:36:00,
2013-01-15 18:42:00,36.2,28.7,30.23,NNW,330,0.0,0.0,74,0.00,,,0.22,Wunderground PWS Mod,2013-01-15 23:42:00,
2013-01-15 18:47:00,36.1,28.6,30.23,NNW,330,0.0,0.0,74,0.00,,,0.22,Wunderground PWS Mod,2013-01-15 23:47:00,
2013-01-15 18:52:00,36.1,28.6,30.23,NNW,330,0.0,0.0,74,0.00,,,0.22,Wunderground PWS Mod,2013-01-15 23:52:00,
2013-01-15 18:57:00,36.1,28.6,30.23,NNW,330,0.0,0.0,74,0.00,,,0.22,Wunderground PWS Mod,2013-01-15 23:57:00,
2013-01-15 19:03:00,36.1,28.6,30.22,NNW,331,0.0,0.0,74,0.00,,,0.22,Wunderground PWS Mod,2013-01-16 00:03:00,
2013-01-15 19:08:00,36.0,28.5,30.22,NNW,331,0.0,0.0,74,0.00,,,0.22,Wunderground PWS Mod,2013-01-16 00:08:00,
2013-01-15 19:13:00,36.0,28.5,30.22,NNW,331,0.0,0.0,74,0.00,,,0.22,Wunderground PWS Mod,2013-01-16 00:13:00,
2013-01-15 19:18:00,36.0,28.5,30.22,NNW,331,0.0,0.0,74,0.00,,,0.22,Wunderground PWS Mod,2013-01-16 00:18:00,
2013-01-15 19:23:00,36.0,28.5,30.23,NNW,329,0.0,0.0,74,0.00,,,0.22,Wunderground PWS Mod,2013-01-16 00:23:00,
2013-01-15 19:28:00,36.1,28.6,30.22,North,355,0.0,0.0,74,0.00,,,0.22,Wunderground PWS Mod,2013-01-16 00:28:00,
2013-01-15 19:34:00,36.1,28.3,30.23,NNE,25,0.0,0.0,73,0.00,,,0.22,Wunderground PWS Mod,2013-01-16 00:34:00,
2013-01-15 19:40:00,36.2,28.0,30.23,North,9,0.0,0.0,72,0.00,,,0.22,Wunderground PWS Mod,2013-01-16 00:40:00,
2013-01-15 19:45:00,36.2,28.0,30.23,North,360,0.0,1.0,72,0.00,,,0.22,Wunderground PWS Mod,2013-01-16 00:45:00,
2013-01-15 19:51:00,36.3,27.8,30.23,NNW,333,1.0,1.0,71,0.00,,,0.22,Wunderground PWS Mod,2013-01-16 00:51:00,
2013-01-15 19:56:00,36.4,27.9,30.23,NNE,12,1.0,1.0,71,0.00,,,0.22,Wunderground PWS Mod,2013-01-16 00:56:00,
2013-01-15 20:01:00,36.4,27.5,30.23,NE,45,0.0,0.0,70,0.00,,,0.22,Wunderground PWS Mod,2013-01-16 01:01:00,
2013-01-15 20:07:00,36.5,27.6,30.24,NNE,15,0.0,5.0,70,0.00,,,0.22,Wunderground PWS Mod,2013-01-16 01:07:00,
2013-01-15 20:12:00,36.5,27.6,30.23,North,355,0.0,5.0,70,0.00,,,0.22,Wunderground PWS Mod,2013-01-16 01:12:00,
2013-01-15 20:14:00,36.5,27.6,30.23,NNW,338,0.0,5.0,70,0.00,,,0.22,Wunderground PWS Mod,2013-01-16 01:14:00,
2013-01-15 20:17:00,36.6,27.7,30.24,NNW,346,0.0,5.0,70,0.00,,,0.22,Wunderground PWS Mod,2013-01-16 01:17:00,
2013-01-15 20:22:00,36.6,27.4,30.23,NNW,328,0.0,5.0,69,0.00,,,0.22,Wunderground PWS Mod,2013-01-16 01:22:00,
2013-01-15 20:27:00,36.6,27.7,30.23,NNE,28,0.0,5.0,70,0.00,,,0.22,Wunderground PWS Mod,2013-01-16 01:27:00,
2013-01-15 20:32:00,36.6,27.4,30.23,NE,36,0.0,5.0,69,0.00,,,0.22,Wunderground PWS Mod,2013-01-16 01:32:00,
2013-01-15 20:37:00,36.6,27.4,30.22,NE,41,0.0,5.0,69,0.00,,,0.22,Wunderground PWS Mod,2013-01-16 01:37:00,
2013-01-15 20:42:00,36.7,28.2,30.22,NE,41,0.0,5.0,71,0.00,,,0.22,Wunderground PWS Mod,2013-01-16 01:42:00,
2013-01-15 20:48:00,36.6,28.1,30.22,NE,42,0.0,5.0,71,0.00,,,0.22,Wunderground PWS Mod,2013-01-16 01:48:00,
2013-01-15 20:54:00,36.6,28.1,30.21,NE,42,0.0,5.0,71,0.00,,,0.22,Wunderground PWS Mod,2013-01-16 01:54:00,
2013-01-15 21:00:00,36.5,28.3,30.22,NE,42,0.0,5.0,72,0.00,,,0.22,Wunderground PWS Mod,2013-01-16 02:00:00,
2013-01-15 21:05:00,36.5,27.6,30.21,NNE,27,0.0,5.0,70,0.00,,,0.22,Wunderground PWS Mod,2013-01-16 02:05:00,
2013-01-15 21:11:00,36.4,27.9,30.21,NNE,27,0.0,5.0,71,0.00,,,0.22,Wunderground PWS Mod,2013-01-16 02:11:00,
2013-01-15 21:16:00,36.3,27.8,30.21,NNE,27,0.0,5.0,71,0.00,,,0.22,Wunderground PWS Mod,2013-01-16 02:16:00,
2013-01-15 21:21:00,36.3,28.1,30.20,NNE,27,0.0,5.0,72,0.00,,,0.22,Wunderground PWS Mod,2013-01-16 02:21:00,
2013-01-15 21:26:00,36.3,27.8,30.21,NNE,27,0.0,5.0,71,0.00,,,0.22,Wunderground PWS Mod,2013-01-16 02:26:00,
2013-01-15 21:32:00,36.3,27.4,30.21,NNE,27,0.0,5.0,70,0.00,,,0.22,Wunderground PWS Mod,2013-01-16 02:32:00,
2013-01-15 21:37:00,36.4,27.5,30.22,NNE,25,0.0,5.0,70,0.00,,,0.22,Wunderground PWS Mod,2013-01-16 02:37:00,
2013-01-15 21:42:00,36.4,27.5,30.22,NNE,25,0.0,5.0,70,0.00,,,0.22,Wunderground PWS Mod,2013-01-16 02:42:00,
2013-01-15 21:48:00,36.4,27.9,30.22,NNE,25,0.0,5.0,71,0.00,,,0.22,Wunderground PWS Mod,2013-01-16 02:48:00,
2013-01-15 21:53:00,36.4,27.5,30.22,NNE,25,0.0,5.0,70,0.00,,,0.22,Wunderground PWS Mod,2013-01-16 02:53:00,
2013-01-15 21:58:00,36.4,27.9,30.21,NNE,25,0.0,5.0,71,0.00,,,0.22,Wunderground PWS Mod,2013-01-16 02:58:00,
2013-01-15 22:03:00,36.4,27.2,30.22,NNE,25,0.0,5.0,69,0.00,,,0.22,Wunderground PWS Mod,2013-01-16 03:03:00,
2013-01-15 22:08:00,36.4,27.5,30.21,NNE,13,0.0,5.0,70,0.00,,,0.22,Wunderground PWS Mod,2013-01-16 03:08:00,
2013-01-15 22:13:00,36.4,27.5,30.21,NNE,13,0.0,5.0,70,0.00,,,0.22,Wunderground PWS Mod,2013-01-16 03:13:00,
2013-01-15 22:18:00,36.3,27.8,30.21,NNE,13,0.0,5.0,71,0.00,,,0.22,Wunderground PWS Mod,2013-01-16 03:18:00,
2013-01-15 22:24:00,36.2,28.4,30.21,NNE,13,0.0,5.0,73,0.00,,,0.22,Wunderground PWS Mod,2013-01-16 03:24:00,
2013-01-15 22:30:00,36.2,27.7,30.20,ENE,71,0.0,5.0,71,0.00,,,0.22,Wunderground PWS Mod,2013-01-16 03:30:00,
2013-01-15 22:35:00,36.1,27.6,30.20,ENE,71,0.0,5.0,71,0.00,,,0.22,Wunderground PWS Mod,2013-01-16 03:35:00,
2013-01-15 22:40:00,36.1,29.3,30.20,ENE,74,0.0,5.0,76,0.00,,,0.22,Wunderground PWS Mod,2013-01-16 03:40:00,
2013-01-15 22:45:00,36.0,27.8,30.20,ENE,74,0.0,5.0,72,0.00,,,0.22,Wunderground PWS Mod,2013-01-16 03:45:00,
2013-01-15 22:51:00,35.9,28.1,30.19,ENE,74,0.0,5.0,73,0.00,,,0.22,Wunderground PWS Mod,2013-01-16 03:51:00,
2013-01-15 22:56:00,35.9,28.7,30.19,ENE,74,0.0,5.0,75,0.00,,,0.22,Wunderground PWS Mod,2013-01-16 03:56:00,
2013-01-15 23:01:00,35.9,29.1,30.19,ENE,74,0.0,5.0,76,0.00,,,0.22,Wunderground PWS Mod,2013-01-16 04:01:00,
2013-01-15 23:06:00,35.9,28.7,30.19,ENE,74,0.0,5.0,75,0.00,,,0.22,Wunderground PWS Mod,2013-01-16 04:06:00,
2013-01-15 23:11:00,35.8,28.3,30.20,ENE,74,0.0,5.0,74,0.00,,,0.22,Wunderground PWS Mod,2013-01-16 04:11:00,
2013-01-15 23:16:00,35.8,28.3,30.19,ENE,74,0.0,5.0,74,0.00,,,0.22,Wunderground PWS Mod,2013-01-16 04:16:00,
2013-01-15 23:21:00,35.7,28.2,30.19,NNE,31,0.0,5.0,74,0.00,,,0.22,Wunderground PWS Mod,2013-01-16 04:21:00,
2013-01-15 23:27:00,35.7,27.6,30.19,NNE,18,0.0,5.0,72,0.00,,,0.22,Wunderground PWS Mod,2013-01-16 04:27:00,
2013-01-15 23:33:00,35.7,27.9,30.19,NE,42,0.0,5.0,73,0.00,,,0.22,Wunderground PWS Mod,2013-01-16 04:33:00,
2013-01-15 23:38:00,35.7,28.2,30.19,NE,38,0.0,5.0,74,0.00,,,0.22,Wunderground PWS Mod,2013-01-16 04:38:00,
2013-01-15 23:43:00,35.7,28.2,30.19,NE,38,0.0,5.0,74,0.00,,,0.22,Wunderground PWS Mod,2013-01-16 04:43:00,
2013-01-15 23:48:00,35.6,28.1,30.19,NE,38,0.0,5.0,74,0.00,,,0.22,Wunderground PWS Mod,2013-01-16 04:48:00,
2013-01-15 23:53:00,35.5,28.0,30.20,NNE,33,0.0,5.0,74,0.00,,,0.22,Wunderground PWS Mod,2013-01-16 04:53:00,
2013-01-15 23:58:00,35.3,27.8,30.20,NNE,33,0.0,5.0,74,0.00,,,0.22,Wunderground PWS Mod,2013-01-16 04:58:00,